Retour au catalogue

GLOBALSTAR M104

ActifCommunicationsLEO
NORAD 100328·PAYLOAD·🇺🇸 United States

Lancé Aug 16, 2026 depuis Cape Canaveral Space Force Station

Loading…

Prochains Passages (prochaines 24 heures)

TLE

VieillissantSource: Space-Track

Époque: Sep 11, 2026, 10:38 UTC

1 A0328U 26185D   26254.44312422  .00000019  00000-0  50472-4 0  9998
2 A0328  51.9883 124.9635 0009153 327.5937  32.4450 14.48491082  3858

Suivez GLOBALSTAR M104 en temps réel avec AllMySat

Download on the App Store